FW2651 Weather Reports


time (UTC)temp
C
wind
direction
speed
KPH
gust
KPH
rain 1hr
cm
rain 24hr
cm
rain mn
cm
humidity
%
barometer
mb
20260906040003 23 222 0.0 0.0 0.00 0.00 0.00 87 1009.8
20260906034605 23 222 0.0 0.0 0.00 0.00 0.00 87 1009.7
20260906033104 23 223 0.0 0.0 0.00 0.00 0.00 87 1009.7
20260906031550 23 223 0.0 0.0 0.00 0.00 0.00 87 1009.7
20260906030047 23 223 0.0 0.0 0.00 0.00 0.00 86 1009.6
20260906024540 23 223 0.0 0.0 0.00 0.00 0.00 87 1009.5
20260906023033 23 223 0.0 0.0 0.00 0.00 0.00 86 1009.0
20260906021528 24 223 0.0 0.0 0.00 0.00 0.00 85 1008.9
20260906020120 24 245 0.0 0.0 0.00 0.00 0.00 84 1008.8
20260906014514 25 244 0.0 0.0 0.00 0.00 0.00 84 1008.5
20260906013007 25 244 0.0 0.0 0.00 0.00 0.00 83 1008.3
20260906011501 25 360 0.0 0.0 0.00 0.00 0.00 80 1008.4
20260906010055 26 360 0.0 0.0 0.00 0.00 0.00 78 1008.5
20260906004551 26 360 0.0 0.0 0.00 0.00 0.00 77 1008.7
20260906003050 26 360 0.0 0.0 0.00 0.00 0.00 75 1008.6
20260906001546 27 360 0.0 0.0 0.00 0.00 0.00 72 1008.6
20260906000040 27 360 0.0 0.0 0.00 0.00 0.00 69 1008.7
20260905234533 28 360 0.0 0.0 0.00 0.00 0.00 67 1008.7
20260905233025 29 360 0.0 0.0 0.00 0.00 0.00 65 1008.5
20260905231521 29 290 0.0 0.0 0.00 0.00 0.00 65 1008.2
20260905230113 29 360 0.0 0.0 0.00 0.00 0.00 65 1008.3
20260905224509 28 290 0.0 1.6 0.00 0.00 0.00 67 1008.5
20260905223113 28 360 0.0 0.0 0.00 0.00 0.00 67 1008.3
20260905221550 27 360 0.0 0.0 0.00 0.00 0.00 68 1008.5
20260905220049 27 360 0.0 0.0 0.00 0.00 0.00 70 1008.7
20260905214548 27 288 0.0 0.0 0.00 0.00 0.00 71 1008.7
20260905213041 27 360 0.0 1.6 0.00 0.00 0.00 69 1008.7
20260905211631 28 280 0.0 1.6 0.00 0.00 0.00 66 1008.8
20260905210038 27 360 0.0 3.2 0.00 0.00 0.00 70 1008.8
20260905204515 25 236 0.0 8.0 0.00 0.00 0.00 73 1009.1
20260905203007 24 216 0.0 6.4 0.00 0.00 0.00 76 1009.3
20260905201559 23 360 3.2 24.1 0.00 0.00 0.00 79 1009.7
20260905201502 23 217 3.2 24.1 0.00 0.00 0.00 79 1009.7
20260905200054 25 213 1.6 11.3 0.00 0.00 0.00 76 1009.6
20260905194550 25 360 0.0 8.0 0.00 0.00 0.00 78 1009.6
20260905193039 26 360 0.0 11.3 0.00 0.00 0.00 72 1009.7
20260905191534 26 144 0.0 1.6 0.00 0.00 0.00 73 1009.7
20260905190028 27 155 1.6 27.4 0.00 0.00 0.00 71 1010.1
20260905184528 30 360 0.0 8.0 0.00 0.00 0.00 66 1009.9
20260905183015 30 360 0.0 4.8 0.00 0.00 0.00 59 1009.8
20260905181507 29 360 0.0 6.4 0.00 0.00 0.00 61 1009.8
20260905180001 32 360 12.9 32.2 0.00 0.00 0.00 53 1010.0
20260905174549 32 360 0.0 0.0 0.00 0.00 0.00 55 1009.8
20260905173105 31 22 0.0 0.0 0.00 0.00 0.00 57 1010.0
20260905171547 30 23 0.0 17.7 0.00 0.00 0.00 60 1010.0
20260905170046 31 360 0.0 6.4 0.00 0.00 0.00 57 1010.2
20260905164536 32 17 0.0 8.0 0.00 0.00 0.00 56 1010.4
20260905163028 32 360 0.0 0.0 0.00 0.00 0.00 57 1010.6
20260905161520 32 360 0.0 0.0 0.00 0.00 0.00 56 1010.8
20260905160014 32 360 0.0 0.0 0.00 0.00 0.00 56 1010.8
20260905154502 31 360 0.0 0.0 0.00 0.00 0.00 58 1010.8
20260905153056 30 40 0.0 0.0 0.00 0.00 0.00 59 1010.9
20260905151548 29 38 0.0 0.0 0.00 0.00 0.00 64 1011.1
20260905150041 28 42 0.0 0.0 0.00 0.00 0.00 67 1011.1
20260905144532 28 360 0.0 0.0 0.00 0.00 0.00 66 1011.1
20260905143022 27 40 0.0 0.0 0.00 0.00 0.00 68 1011.2
20260905141514 27 360 0.0 0.0 0.00 0.00 0.00 69 1011.3
20260905140110 26 360 0.0 0.0 0.00 0.00 0.00 71 1011.3
20260905134658 26 36 0.0 0.0 0.00 0.00 0.00 76 1011.4
20260905133049 25 36 0.0 0.0 0.00 0.00 0.00 77 1011.5
20260905131641 25 36 0.0 0.0 0.00 0.00 0.00 80 1011.6
20260905130033 24 36 0.0 0.0 0.00 0.00 0.00 82 1011.7
20260905124526 23 39 0.0 0.0 0.00 0.00 0.00 85 1011.8
20260905123017 23 40 0.0 0.0 0.00 0.00 0.00 86 1011.6
20260905121508 22 360 0.0 0.0 0.00 0.00 0.00 90 1011.4
20260905120001 22 40 0.0 0.0 0.00 0.00 0.00 91 1011.2
20260905114600 21 40 0.0 0.0 0.00 0.00 0.00 92 1011.1
20260905113049 21 40 0.0 0.0 0.00 0.00 0.00 91 1010.8
20260905111542 21 40 0.0 0.0 0.00 0.00 0.00 92 1010.6
20260905110037 21 41 0.0 0.0 0.00 0.00 0.00 91 1010.5
20260905104531 21 40 0.0 0.0 0.00 0.00 0.00 91 1010.5
20260905103023 21 360 0.0 0.0 0.00 0.00 0.00 92 1010.4
20260905101519 21 41 0.0 0.0 0.00 0.00 0.00 91 1010.2
20260905100012 21 41 0.0 0.0 0.00 0.00 0.00 91 1010.2
20260905094500 21 41 0.0 0.0 0.00 0.00 0.00 91 1010.2
20260905093155 21 41 0.0 0.0 0.00 0.00 0.00 91 1009.9
20260905091557 22 41 0.0 0.0 0.00 0.00 0.00 91 1009.9
20260905090042 22 41 0.0 0.0 0.00 0.00 0.00 91 1009.9
20260905084540 22 41 0.0 0.0 0.00 0.00 0.00 90 1010.0
20260905083135 22 40 0.0 0.0 0.00 0.00 0.00 89 1010.2
20260905081519 22 41 0.0 0.0 0.00 0.00 0.00 90 1010.2
20260905080014 22 40 0.0 0.0 0.00 0.00 0.00 90 1010.3
20260905074505 22 41 0.0 0.0 0.00 0.00 0.00 89 1010.3
20260905073157 22 40 0.0 0.0 0.00 0.00 0.00 90 1010.5
20260905071551 22 360 0.0 0.0 0.00 0.00 0.00 89 1010.6
20260905070144 22 34 0.0 0.0 0.00 0.00 0.00 89 1010.7
20260905064537 23 35 0.0 0.0 0.00 0.00 0.00 88 1010.7
20260905063028 23 34 0.0 0.0 0.00 0.00 0.00 88 1010.7
20260905061520 23 34 0.0 0.0 0.00 0.00 0.00 87 1010.7
20260905060014 23 34 0.0 0.0 0.00 0.00 0.00 88 1010.7
20260905054514 23 35 0.0 0.0 0.00 0.00 0.00 88 1010.7
20260905053059 23 35 0.0 0.0 0.00 0.00 0.00 87 1010.7
20260905051650 23 34 0.0 0.0 0.00 0.00 0.00 85 1010.8
20260905050041 24 34 0.0 0.0 0.00 0.00 0.00 86 1010.8
20260905044535 24 35 0.0 0.0 0.00 0.00 0.00 86 1010.9
20260905043130 24 34 0.0 0.0 0.00 0.00 0.00 84 1010.9
20260905041526 25 34 0.0 0.0 0.00 0.00 0.00 83 1010.8